Location: ????????
(38.4362°N, 22.8767°E)
Time: 00:38:24
(UTC+00:00)

Cosmos 1092 Rocket - Pass Details

Date: 03 May 2025
Orbit: 953 x 994 km, 82.9° (Epoch: 16 May)

Event Time Altitude Azimuth Distance (km) Brightness Sun altitude
Rises 18:17:49 0° 328° (NNW) 3,664 8.2 -10.6°
Reaches altitude 10° 18:23:21 10° 287° (WNW) 2,723 7.7 -11.6°
Maximum altitude 18:24:00 10° 281° (WNW) 2,711 7.6 -11.7°
Drops below altitude 10° 18:24:38 10° 275° (W) 2,724 7.4 -11.8°
Sets 18:30:13 0° 235° (SW) 3,677 7.3 -12.7°
